Midland, VA

3:28 PM EDT on September 26, 2016 (GMT -0400)
Warrenton

Weather History for KHWY - March, 2013

Change the Weather History Date:

Wednesday, March 6, 2013

  Actual Average (KHEF) Record (KHEF)
Temperature  
Mean Temperature 37 °F -  
Max Temperature 41 °F 49 °F 71 °F (2004)
Min Temperature 34 °F 27 °F 6 °F (2015)
Degree Days  
Heating Degree Days 28    
Moisture  
Dew Point 36 °F    
Average Humidity 96    
Maximum Humidity 100    
Minimum Humidity 78    
Precipitation  
Precipitation 0.48 in - - ()
Sea Level Pressure  
Sea Level Pressure 29.74 in    
Wind  
Wind Speed 12 mph (North)    
Max Wind Speed 29 mph    
Max Gust Speed 39 mph    
Visibility 5 miles    
Events Rain , Snow    
Averages and records for this station are not official NWS values.
T = Trace of Precipitation, MM = Missing Value Source: NWS Daily Summary

Daily Weather History Graph

Daily Weather History Graph

Search for Another Location

Airport or City:

Trip Planner

Search our weather history database for the weather conditions in past years. The results will help you decide how hot, cold, wet, or windy it might be!

Date:

Astronomy

Mar. 06, 2013 Rise Set
Actual Time 6:35 AM EST 6:09 PM EST
Civil Twilight 6:08 AM EST 6:35 PM EST
Nautical Twilight 5:38 AM EST 7:06 PM EST
Astronomical Twilight 5:07 AM EST 7:37 PM EST
Moon 2:39 AM EST (3/6) 12:51 PM EST (3/6)
Length of Visible Light 12h 26m
Length of Day
11h 33m
Waning Crescent, 30% of the Moon is Illuminated
Mar 6
Waning Crescent
Mar 11
New
Mar 19
First Quarter
Mar 27
Full
Apr 3
Last Quarter

Hourly Weather History & Observations

Time (EST) Temp. Windchill Dew Point Humidity Pressure Visibility Wind Dir Wind Speed Gust Speed Precip Events Conditions
12:15 AM 34.7 °F 28.8 °F 34.7 °F 100% 29.75 in 2.0 mi NE 6.9 mph - 0.01 in Snow Light Snow
12:35 AM 34.7 °F 30.6 °F 34.7 °F 100% 29.75 in 2.5 mi NE 4.6 mph - 0.01 in   Overcast
12:55 AM 34.7 °F 29.6 °F 34.7 °F 100% 29.73 in 2.5 mi NE 5.8 mph - 0.03 in   Overcast
1:15 AM 34.7 °F 28.8 °F 34.7 °F 100% 29.71 in 1.8 mi NE 6.9 mph - 0.01 in   Overcast
1:35 AM 34.7 °F 29.6 °F 34.7 °F 100% 29.70 in 1.2 mi NE 5.8 mph - 0.04 in Snow Snow
1:55 AM 34.7 °F 29.6 °F 34.7 °F 100% 29.70 in 1.5 mi NE 5.8 mph - 0.08 in   Overcast
2:15 AM 34.7 °F 30.6 °F 34.7 °F 100% 29.69 in 0.8 mi NE 4.6 mph - 0.03 in Snow Snow
2:35 AM 34.5 °F 28.6 °F 34.5 °F 100% 29.66 in 1.0 mi NNE 6.9 mph - 0.05 in Snow Light Snow
2:55 AM 34.5 °F 27.9 °F 34.5 °F 100% 29.64 in 2.5 mi NE 8.1 mph - 0.06 in Snow Light Snow
3:15 AM 34.5 °F 27.3 °F 34.5 °F 100% 29.63 in 2.5 mi NE 9.2 mph - N/A Snow Light Snow
3:35 AM 34.7 °F 27.5 °F 34.7 °F 100% 29.62 in 2.5 mi NE 9.2 mph - 0.02 in Snow Snow
3:55 AM 34.7 °F 28.1 °F 34.7 °F 100% 29.61 in 2.0 mi NNE 8.1 mph - 0.04 in   Overcast
4:15 AM 34.7 °F 28.8 °F 34.7 °F 100% 29.61 in 2.0 mi NNE 6.9 mph - N/A Rain Rain
4:35 AM 34.7 °F 28.8 °F 34.7 °F 100% 29.60 in 2.0 mi NNE 6.9 mph - 0.02 in Rain Rain
4:55 AM 34.7 °F 27.5 °F 34.7 °F 100% 29.60 in 1.5 mi NNE 9.2 mph - 0.03 in Snow Light Snow
5:15 AM 34.7 °F 27.5 °F 34.7 °F 100% 29.59 in 1.0 mi NNE 9.2 mph - 0.01 in Snow Light Snow
5:35 AM 34.7 °F 26.9 °F 34.7 °F 100% 29.58 in 2.5 mi North 10.4 mph - 0.02 in Rain Rain
5:55 AM 34.9 °F 27.7 °F 34.9 °F 100% 29.58 in 1.8 mi NNE 9.2 mph - 0.03 in   Overcast
6:15 AM 34.9 °F 27.1 °F 34.9 °F 100% 29.58 in 3.0 mi North 10.4 mph - N/A Rain Light Rain
6:35 AM 34.9 °F 27.1 °F 34.9 °F 100% 29.58 in 1.8 mi NNE 10.4 mph - 0.01 in Rain Rain
6:55 AM 34.9 °F 27.1 °F 34.9 °F 100% 29.58 in 0.5 mi North 10.4 mph - 0.02 in Snow Light Snow
7:15 AM 34.9 °F 27.1 °F 34.9 °F 100% 29.58 in 0.5 mi North 10.4 mph - 0.01 in Snow Light Snow
7:35 AM 34.9 °F 27.1 °F 34.9 °F 100% 29.58 in 1.0 mi North 10.4 mph - 0.03 in Snow Light Snow
7:55 AM 35.1 °F 27.9 °F 35.1 °F 100% 29.58 in 1.0 mi North 9.2 mph 17.3 mph 0.04 in Snow Light Snow
8:15 AM 35.4 °F 27.8 °F 35.4 °F 100% 29.59 in 1.0 mi North 10.4 mph - N/A Snow Light Snow
8:35 AM 35.6 °F 29.2 °F 35.6 °F 100% 29.60 in 1.8 mi North 8.1 mph - N/A   Overcast
8:55 AM 35.6 °F 27.1 °F 35.6 °F 100% 29.60 in 1.8 mi North 12.7 mph 16.1 mph 0.01 in Snow Light Snow
9:15 AM 35.6 °F 25.9 °F 35.6 °F 100% 29.60 in 3.0 mi North 16.1 mph - N/A Rain Light Rain
9:35 AM 35.8 °F 26.9 °F 35.8 °F 100% 29.59 in 2.0 mi North 13.8 mph 20.7 mph 0.01 in Rain Rain
9:55 AM 35.8 °F 25.7 °F 35.8 °F 100% 29.60 in 3.0 mi North 17.3 mph 21.9 mph 0.01 in Snow Snow
10:15 AM - - - N/A% 29.60 in 0.5 mi North 17.3 mph 24.2 mph 0.02 in   Unknown
10:35 AM 35.2 °F 24.1 °F 35.2 °F 100% 29.59 in 0.8 mi North 20.7 mph 29.9 mph 0.03 in Snow Snow
10:55 AM 35.6 °F 25.2 °F 35.6 °F 100% 29.60 in 0.8 mi North 18.4 mph 33.4 mph 0.04 in Snow Light Snow
11:15 AM 35.6 °F 24.0 °F 35.6 °F 100% 29.61 in 0.8 mi North 23.0 mph 28.8 mph N/A Snow Light Snow
11:35 AM 35.6 °F 24.2 °F 35.6 °F 100% 29.62 in 1.0 mi North 21.9 mph 32.2 mph 0.01 in Snow Light Snow
11:55 AM 36.1 °F 24.2 °F 36.1 °F 100% 29.61 in 2.5 mi NNW 25.3 mph 38.0 mph 0.01 in Snow Snow
12:15 PM 36.5 °F 25.4 °F 36.5 °F 100% 29.63 in 3.0 mi North 21.9 mph 32.2 mph N/A Rain Rain
12:35 PM 36.7 °F 26.0 °F 36.7 °F 100% - 4.0 mi North 20.7 mph 32.2 mph N/A Rain Light Rain
12:55 PM 36.7 °F 25.4 °F 36.7 °F 100% 29.66 in 5.0 mi North 23.0 mph 35.7 mph N/A Rain Light Rain
1:15 PM 36.5 °F 25.2 °F 36.5 °F 100% 29.67 in 2.5 mi North 23.0 mph 32.2 mph 0.01 in Rain Light Rain
1:35 PM 36.5 °F 24.7 °F 36.5 °F 100% 29.67 in 3.0 mi NNW 25.3 mph 31.1 mph 0.01 in   Overcast
1:55 PM 36.1 °F 25.2 °F 36.1 °F 100% 29.69 in 1.2 mi NNW 20.7 mph 33.4 mph 0.03 in Snow Light Snow
2:15 PM 36.3 °F 24.4 °F 36.3 °F 100% 29.71 in 1.8 mi NNW 25.3 mph 35.7 mph 0.01 in Snow Light Snow
2:35 PM 36.1 °F 25.0 °F 36.1 °F 100% 29.73 in 1.8 mi NNW 21.9 mph 33.4 mph 0.02 in Snow Light Snow
2:55 PM 36.7 °F 24.9 °F 36.7 °F 100% 29.75 in 3.0 mi NNW 25.3 mph 33.4 mph 0.03 in Snow Light Snow
3:15 PM 37.0 °F 25.9 °F 37.0 °F 100% 29.77 in 4.0 mi North 23.0 mph 34.5 mph N/A Rain Rain
3:35 PM 37.6 °F 26.1 °F 37.4 °F 99% 29.77 in 4.0 mi NNW 25.3 mph 33.4 mph 0.01 in Rain Light Rain
3:55 PM 38.3 °F 26.4 °F 37.6 °F 97% 29.80 in 5.0 mi NNW 28.8 mph 39.1 mph 0.02 in Rain Light Rain
4:15 PM 38.5 °F 26.9 °F 37.4 °F 96% 29.82 in 7.0 mi NNW 27.6 mph 38.0 mph N/A Rain Light Rain
4:35 PM 38.5 °F 28.1 °F 37.6 °F 97% 29.85 in 10.0 mi NNW 21.9 mph 31.1 mph N/A Rain Light Rain
4:55 PM 38.5 °F 28.9 °F 37.6 °F 97% 29.87 in 10.0 mi NNW 18.4 mph 28.8 mph N/A Rain Light Rain
5:15 PM 38.5 °F 28.6 °F 37.8 °F 97% 29.88 in 10.0 mi NNW 19.6 mph 27.6 mph N/A Rain Light Rain
5:35 PM 38.5 °F 29.2 °F 37.6 °F 97% 29.89 in 10.0 mi NNW 17.3 mph - N/A Rain Light Rain
5:55 PM 38.3 °F 29.3 °F 37.6 °F 97% 29.90 in 10.0 mi NNW 16.1 mph 24.2 mph N/A   Light Drizzle
6:15 PM 38.5 °F 29.9 °F 37.6 °F 97% 29.91 in 10.0 mi NNW 15.0 mph - N/A Rain Light Rain
6:35 PM 38.7 °F 31.4 °F 37.4 °F 95% 29.92 in 10.0 mi NNW 11.5 mph 17.3 mph N/A   Overcast
6:55 PM 39.4 °F 31.8 °F 37.4 °F 93% 29.93 in 10.0 mi NNW 12.7 mph 18.4 mph N/A   Overcast
7:15 PM 39.9 °F 33.4 °F 36.9 °F 89% 29.93 in 10.0 mi NNW 10.4 mph 16.1 mph N/A   Overcast
7:35 PM 40.3 °F 33.0 °F 36.5 °F 86% 29.94 in 10.0 mi NNW 12.7 mph - N/A   Overcast
7:55 PM 40.5 °F 32.8 °F 35.8 °F 83% 29.95 in 10.0 mi NNW 13.8 mph 19.6 mph N/A   Overcast
8:15 PM 40.6 °F 32.7 °F 35.6 °F 82% 29.96 in 10.0 mi NNW 15.0 mph - N/A   Overcast
8:35 PM 40.5 °F 33.2 °F 35.2 °F 82% 29.96 in 10.0 mi NNW 12.7 mph 18.4 mph N/A   Overcast
8:55 PM 40.5 °F 32.8 °F 35.1 °F 81% 29.96 in 10.0 mi NNW 13.8 mph 23.0 mph N/A   Overcast
9:15 PM 40.3 °F 32.2 °F 34.9 °F 81% 29.96 in 10.0 mi NNW 15.0 mph - N/A   Mostly Cloudy
9:35 PM 40.6 °F 32.7 °F 34.7 °F 79% 29.96 in 10.0 mi NNW 15.0 mph 21.9 mph N/A   Scattered Clouds
9:55 PM 40.8 °F 32.9 °F 34.7 °F 79% 29.98 in 10.0 mi NNW 15.0 mph 19.6 mph N/A   Clear
10:35 PM 40.5 °F 33.6 °F 34.7 °F 80% 29.99 in 10.0 mi NW 11.5 mph - N/A   Clear
10:55 PM 40.5 °F 33.2 °F 34.5 °F 79% 29.99 in 10.0 mi NW 12.7 mph 18.4 mph N/A   Clear
11:15 PM 40.3 °F 33.4 °F 34.3 °F 79% 30.00 in 10.0 mi NNW 11.5 mph - N/A   Clear
11:35 PM 39.7 °F 33.2 °F 34.2 °F 80% 30.00 in 10.0 mi NNW 10.4 mph - N/A   Clear
11:55 PM 40.3 °F 33.4 °F 34.0 °F 78% 30.00 in 10.0 mi NW 11.5 mph 20.7 mph N/A   Clear